COSMO-SKYMED 4

Last updated on Mon Sep 21 2026 00:02:45 GMT+0000 (Coordinated Universal Time)

1 37216U 10060A 26263.56612973 .00000146 00000+0 24911-4 0 9995 2 37216 97.8918 85.8093 0001420 81.6994 278.4380 14.82155982858693
UTC large
Height (km)
Speed (km/s)
/
Latitude / Longitude
Inclination (degrees)
Orbital Period (minutes)
Azimuth
Elevation
Range (km)
Doppler Factor

Next 0 passes for location: London (51.5072 / 0.1276)

No passes found over London.
COSMO-SKYMED 4